This is the latest recevied weather packets stored in our database for station/object N8QF. If no packets are shown the sender has not sent any weather packets the latest 10 day(s).
| Time | Temp. | Humidity | Pressure | Rain* | Wind** | Luminosity | Snow |
|---|---|---|---|---|---|---|---|
| 1777583737 | 13.89° C | 44% | 1014.7 hPa | 0 mm | - | - | - |
| 1777583437 | 13.89° C | 45% | 1014.8 hPa | 0 mm | - | - | - |
| 1777583137 | 13.89° C | 45% | 1014.8 hPa | 0 mm | - | - | - |
| 1777582837 | 13.89° C | 43% | 1014.9 hPa | 0 mm | - | - | - |
| 1777582534 | 14.44° C | 44% | 1014.9 hPa | 0 mm | - | - | - |
| 1777582231 | 14.44° C | 43% | 1014.9 hPa | 0 mm | - | - | - |
| 1777581930 | 15° C | 44% | 1014.8 hPa | 0 mm | - | - | - |
| 1777581630 | 15° C | 43% | 1014.8 hPa | 0 mm | - | - | - |
| 1777581330 | 15° C | 44% | 1014.8 hPa | 0 mm | - | - | - |
| 1777581030 | 15° C | 42% | 1014.9 hPa | 0 mm | - | - | - |
| 1777580729 | 15.56° C | 43% | 1014.9 hPa | 0 mm | - | - | - |
| 1777580429 | 15° C | 42% | 1014.9 hPa | 0 mm | - | - | - |
| 1777580129 | 15° C | 46% | 1014.8 hPa | 0 mm | - | - | - |
| 1777579829 | 15° C | 48% | 1014.9 hPa | 0 mm | - | - | - |
| 1777579528 | 14.44° C | 45% | 1015 hPa | 0 mm | - | - | - |
| 1777579228 | 13.89° C | 45% | 1015 hPa | 0 mm | - | - | - |
| 1777578928 | 13.89° C | 43% | 1015.1 hPa | 0 mm | - | - | - |
| 1777578627 | 15° C | 43% | 1015.1 hPa | 0 mm | - | - | - |
| 1777578327 | 14.44° C | 46% | 1015.1 hPa | 0 mm | - | - | - |
| 1777578026 | 14.44° C | 45% | 1015.1 hPa | 0 mm | - | - | - |
| 1777577726 | 15° C | 48% | 1015.1 hPa | 0 mm | - | - | - |
| 1777577426 | 14.44° C | 47% | 1015.3 hPa | 0 mm | - | - | - |
| 1777577126 | 13.89° C | 46% | 1015.3 hPa | 0 mm | - | - | - |
| 1777576825 | 13.33° C | 46% | 1015.3 hPa | 0 mm | - | - | - |
| 1777576525 | 13.33° C | 43% | 1015.3 hPa | 0 mm | - | - | - |
* Rain since midnight (hover to see other rain measurements)
** Current wind speed in m/s (hover to see current wind gust speed)